Location: Newark
(48.8656°N, 2.3211°E)
Time: 23:23:58
(UTC+00:00)

Envisat - Pass Details

Date: 08 December 2019
Orbit: 764 x 766 km, 98.1° (Epoch: 21 January)

Event Time Altitude Azimuth Distance (km) Brightness Sun altitude
Rises 18:51:05 0° 203° (SSW) 3,222 6.6 -28.0°
Reaches altitude 10° 18:53:52 10° 218° (SW) 2,301 5.9 -28.5°
Maximum altitude 18:57:46 22° 269° (W) 1,622 5.4 -29.1°
Drops below altitude 10° 19:01:44 10° 320° (NW) 2,315 5.9 -29.8°
Sets 19:04:33 0° 335° (NNW) 3,246 6.5 -30.2°
